Zurück zum Katalog

STARLINK-5910

AktivKommunikationVLEO
NORAD 56000·PAYLOAD·🇺🇸 United States

Gestartet Mar 24, 2023 von Cape Canaveral Space Force Station

Loading…

Nächste Überflüge (nächste 24 Stunden)

TLE

AktuellSource: CelesTrak SupGP

Epoche: Sep 14, 2026, 14:19 UTC

1 56000C 23042Q   26257.59701389 -.00021902  00000+0 -79318-3 0  2579
2 56000  43.0038  72.6909 0001770 269.1813 358.5755 15.27592792    17

Verfolge STARLINK-5910 in Echtzeit mit AllMySat

Download on the App Store